Time,TemperatureF,DewpointF,PressureIn,WindDirection,WindDirectionDegrees,WindSpeedMPH,WindSpeedGustMPH,Humidity,HourlyPrecipIn,Conditions,Clouds,dailyrainin,SolarRadiationWatts/m^2,SoftwareType,DateUTC
2013-03-07 00:00:00,33.9,28.7,30.09,NW,325,1.0,1.0,81,0.00,,,0.00,0,Wunderground v.1.15,2013-03-07 05:00:00,
2013-03-07 00:01:00,33.9,28.7,30.09,NW,325,1.0,1.0,81,0.00,,,0.00,0,Wunderground v.1.15,2013-03-07 05:01:00,
2013-03-07 00:02:00,33.8,29.2,30.09,NW,326,1.0,1.0,83,0.00,,,0.00,0,Wunderground v.1.15,2013-03-07 05:02:00,
2013-03-07 00:03:00,33.7,29.1,30.09,NNW,327,1.0,1.0,83,0.00,,,0.00,0,Wunderground v.1.15,2013-03-07 05:03:00,
2013-03-07 00:08:00,33.5,29.5,30.08,NW,325,0.0,1.0,85,0.00,,,0.00,0,Wunderground v.1.15,2013-03-07 05:08:00,
2013-03-07 00:13:00,33.1,29.1,30.08,West,265,1.0,5.0,85,0.00,,,0.00,0,Wunderground v.1.15,2013-03-07 05:13:00,
2013-03-07 00:18:00,32.9,28.3,30.08,WSW,248,2.0,5.0,83,0.00,,,0.00,0,Wunderground v.1.15,2013-03-07 05:18:00,
2013-03-07 00:23:00,32.9,28.0,30.08,WNW,289,3.0,7.0,82,0.00,,,0.00,0,Wunderground v.1.15,2013-03-07 05:23:00,
2013-03-07 00:29:00,33.1,28.2,30.08,West,274,5.0,12.0,82,0.00,,,0.00,0,Wunderground v.1.15,2013-03-07 05:29:00,
2013-03-07 00:34:00,33.3,28.1,30.08,WNW,284,5.0,9.0,81,0.00,,,0.00,0,Wunderground v.1.15,2013-03-07 05:34:00,
2013-03-07 00:40:00,33.5,28.3,30.08,NW,311,4.0,4.0,81,0.00,,,0.00,0,Wunderground v.1.15,2013-03-07 05:40:00,
2013-03-07 00:45:00,33.5,28.6,30.09,WNW,287,3.0,6.0,82,0.00,,,0.00,0,Wunderground v.1.15,2013-03-07 05:45:00,
2013-03-07 00:50:00,33.5,28.3,30.08,WNW,292,3.0,3.0,81,0.00,,,0.00,0,Wunderground v.1.15,2013-03-07 05:50:00,
2013-03-07 00:56:00,33.4,28.8,30.08,WNW,288,1.0,3.0,83,0.00,,,0.00,0,Wunderground v.1.15,2013-03-07 05:56:00,
2013-03-07 01:02:00,33.2,28.9,30.09,WNW,286,2.0,7.0,84,0.00,,,0.00,0,Wunderground v.1.15,2013-03-07 06:02:00,
2013-03-07 01:07:00,33.1,28.2,30.09,West,260,4.0,9.0,82,0.00,,,0.00,0,Wunderground v.1.15,2013-03-07 06:07:00,
2013-03-07 01:13:00,33.3,27.8,30.09,NW,308,5.0,5.0,80,0.00,,,0.00,0,Wunderground v.1.15,2013-03-07 06:13:00,
2013-03-07 01:18:00,33.4,28.5,30.09,WNW,284,3.0,5.0,82,0.00,,,0.00,0,Wunderground v.1.15,2013-03-07 06:18:00,
2013-03-07 01:24:00,33.3,28.7,30.09,NW,309,3.0,8.0,83,0.00,,,0.00,0,Wunderground v.1.15,2013-03-07 06:24:00,
2013-03-07 01:29:00,33.2,28.0,30.09,WNW,301,3.0,8.0,81,0.00,,,0.00,0,Wunderground v.1.15,2013-03-07 06:29:00,
2013-03-07 01:34:00,33.2,28.6,30.10,WNW,291,3.0,5.0,83,0.00,,,0.00,0,Wunderground v.1.15,2013-03-07 06:34:00,
2013-03-07 01:39:00,33.1,28.8,30.09,West,267,4.0,7.0,84,0.00,,,0.00,0,Wunderground v.1.15,2013-03-07 06:39:00,
2013-03-07 01:45:00,33.0,28.4,30.10,NW,311,5.0,7.0,83,0.00,,,0.00,0,Wunderground v.1.15,2013-03-07 06:45:00,
2013-03-07 01:50:00,33.1,28.5,30.10,West,271,6.0,7.0,83,0.00,,,0.00,0,Wunderground v.1.15,2013-03-07 06:50:00,
2013-03-07 01:56:00,33.5,28.6,30.09,WNW,295,6.0,13.0,82,0.00,,,0.00,0,Wunderground v.1.15,2013-03-07 06:56:00,
2013-03-07 02:01:00,33.6,29.0,30.09,WNW,301,5.0,5.0,83,0.00,,,0.00,0,Wunderground v.1.15,2013-03-07 07:01:00,
2013-03-07 02:07:00,33.4,29.4,30.09,NW,311,3.0,5.0,85,0.00,,,0.00,0,Wunderground v.1.15,2013-03-07 07:07:00,
2013-03-07 02:12:00,33.4,28.5,30.09,West,280,4.0,7.0,82,0.00,,,0.00,0,Wunderground v.1.15,2013-03-07 07:12:00,
2013-03-07 02:17:00,33.4,28.8,30.09,WNW,285,5.0,9.0,83,0.00,,,0.00,0,Wunderground v.1.15,2013-03-07 07:17:00,
2013-03-07 02:23:00,33.5,28.9,30.09,NE,34,4.0,5.0,83,0.00,,,0.00,0,Wunderground v.1.15,2013-03-07 07:23:00,
2013-03-07 02:28:00,33.3,29.3,30.09,WNW,294,3.0,5.0,85,0.00,,,0.00,0,Wunderground v.1.15,2013-03-07 07:28:00,
2013-03-07 02:34:00,33.1,29.1,30.09,West,275,3.0,10.0,85,0.00,,,0.00,0,Wunderground v.1.15,2013-03-07 07:34:00,
2013-03-07 02:39:00,33.1,29.1,30.09,WNW,289,5.0,10.0,85,0.00,,,0.00,0,Wunderground v.1.15,2013-03-07 07:39:00,
2013-03-07 02:44:00,33.1,28.8,30.09,NW,325,6.0,8.0,84,0.00,,,0.00,0,Wunderground v.1.15,2013-03-07 07:44:00,
2013-03-07 02:50:00,33.2,29.2,30.09,West,281,3.0,4.0,85,0.00,,,0.00,0,Wunderground v.1.15,2013-03-07 07:50:00,
2013-03-07 02:56:00,33.2,29.2,30.09,NW,304,3.0,13.0,85,0.00,,,0.00,0,Wunderground v.1.15,2013-03-07 07:56:00,
2013-03-07 03:01:00,33.2,29.2,30.09,WNW,300,4.0,5.0,85,0.00,,,0.00,0,Wunderground v.1.15,2013-03-07 08:01:00,
2013-03-07 03:07:00,33.4,28.8,30.09,North,5,4.0,6.0,83,0.00,,,0.00,0,Wunderground v.1.15,2013-03-07 08:07:00,
2013-03-07 03:12:00,33.5,28.9,30.09,NW,318,3.0,5.0,83,0.00,,,0.00,0,Wunderground v.1.15,2013-03-07 08:12:00,
2013-03-07 03:18:00,33.5,29.5,30.09,NE,52,3.0,5.0,85,0.00,,,0.00,0,Wunderground v.1.15,2013-03-07 08:18:00,
2013-03-07 03:23:00,33.6,29.0,30.08,NNW,327,4.0,4.0,83,0.00,,,0.00,0,Wunderground v.1.15,2013-03-07 08:23:00,
2013-03-07 03:29:00,33.7,29.1,30.09,North,9,4.0,6.0,83,0.00,,,0.00,0,Wunderground v.1.15,2013-03-07 08:29:00,
2013-03-07 03:34:00,33.7,28.8,30.08,NNW,344,2.0,4.0,82,0.00,,,0.00,0,Wunderground v.1.15,2013-03-07 08:34:00,
2013-03-07 03:40:00,33.7,29.4,30.09,North,349,1.0,1.0,84,0.00,,,0.00,0,Wunderground v.1.15,2013-03-07 08:40:00,
2013-03-07 03:45:00,33.4,29.4,30.09,NW,309,1.0,2.0,85,0.00,,,0.00,0,Wunderground v.1.15,2013-03-07 08:45:00,
2013-03-07 03:51:00,33.2,29.2,30.09,North,360,1.0,1.0,85,0.00,,,0.00,0,Wunderground v.1.15,2013-03-07 08:51:00,
2013-03-07 03:56:00,33.2,29.2,30.09,North,355,0.0,1.0,85,0.00,,,0.00,0,Wunderground v.1.15,2013-03-07 08:56:00,
2013-03-07 04:02:00,33.0,29.3,30.09,North,355,0.0,1.0,86,0.00,,,0.00,0,Wunderground v.1.15,2013-03-07 09:02:00,
2013-03-07 04:07:00,33.1,28.8,30.09,WSW,253,2.0,6.0,84,0.00,,,0.00,0,Wunderground v.1.15,2013-03-07 09:07:00,
2013-03-07 04:12:00,33.3,28.7,30.10,NNW,333,3.0,4.0,83,0.00,,,0.00,0,Wunderground v.1.15,2013-03-07 09:12:00,
2013-03-07 04:18:00,33.5,28.9,30.10,North,9,4.0,7.0,83,0.00,,,0.00,0,Wunderground v.1.15,2013-03-07 09:18:00,
2013-03-07 04:23:00,33.6,28.7,30.10,WNW,286,3.0,4.0,82,0.00,,,0.00,0,Wunderground v.1.15,2013-03-07 09:23:00,
2013-03-07 04:29:00,33.6,29.0,30.10,West,267,3.0,8.0,83,0.00,,,0.00,0,Wunderground v.1.15,2013-03-07 09:29:00,
2013-03-07 04:35:00,33.6,29.0,30.10,WNW,296,3.0,5.0,83,0.00,,,0.00,0,Wunderground v.1.15,2013-03-07 09:35:00,
2013-03-07 04:40:00,33.5,29.2,30.10,NE,35,2.0,2.0,84,0.00,,,0.00,0,Wunderground v.1.15,2013-03-07 09:40:00,
2013-03-07 04:46:00,33.3,29.0,30.11,NNW,333,2.0,6.0,84,0.00,,,0.00,0,Wunderground v.1.15,2013-03-07 09:46:00,
2013-03-07 04:51:00,33.3,29.0,30.11,NW,317,4.0,7.0,84,0.00,,,0.00,0,Wunderground v.1.15,2013-03-07 09:51:00,
2013-03-07 04:57:00,33.5,28.6,30.10,WNW,289,6.0,9.0,82,0.00,,,0.00,0,Wunderground v.1.15,2013-03-07 09:57:00,
2013-03-07 05:02:00,33.7,28.8,30.11,ENE,59,5.0,6.0,82,0.00,,,0.00,0,Wunderground v.1.15,2013-03-07 10:02:00,
2013-03-07 05:07:00,33.7,28.8,30.10,WSW,257,3.0,6.0,82,0.00,,,0.00,0,Wunderground v.1.15,2013-03-07 10:07:00,
2013-03-07 05:13:00,33.6,29.0,30.10,ENE,64,2.0,2.0,83,0.00,,,0.00,0,Wunderground v.1.15,2013-03-07 10:13:00,
2013-03-07 05:19:00,33.6,28.7,30.10,East,79,2.0,5.0,82,0.00,,,0.00,0,Wunderground v.1.15,2013-03-07 10:19:00,
2013-03-07 05:24:00,33.5,28.6,30.10,NNW,348,3.0,6.0,82,0.00,,,0.00,0,Wunderground v.1.15,2013-03-07 10:24:00,
2013-03-07 05:30:00,33.5,28.9,30.11,WNW,298,3.0,7.0,83,0.00,,,0.00,0,Wunderground v.1.15,2013-03-07 10:30:00,
2013-03-07 05:35:00,33.5,28.6,30.11,West,259,4.0,7.0,82,0.00,,,0.00,0,Wunderground v.1.15,2013-03-07 10:35:00,
2013-03-07 05:41:00,33.4,28.2,30.11,South,169,3.0,3.0,81,0.00,,,0.00,0,Wunderground v.1.15,2013-03-07 10:41:00,
2013-03-07 05:46:00,33.4,28.5,30.11,NNE,29,2.0,3.0,82,0.00,,,0.00,0,Wunderground v.1.15,2013-03-07 10:46:00,
2013-03-07 05:51:00,33.3,28.7,30.12,NW,312,2.0,3.0,83,0.00,,,0.00,0,Wunderground v.1.15,2013-03-07 10:51:00,
2013-03-07 05:57:00,33.4,28.2,30.12,NNW,331,3.0,8.0,81,0.00,,,0.00,0,Wunderground v.1.15,2013-03-07 10:57:00,
2013-03-07 06:03:00,33.4,28.8,30.12,NW,317,3.0,4.0,83,0.00,,,0.00,0,Wunderground v.1.15,2013-03-07 11:03:00,
2013-03-07 06:09:00,33.5,28.3,30.12,North,355,2.0,4.0,81,0.00,,,0.00,0,Wunderground v.1.15,2013-03-07 11:09:00,
2013-03-07 06:14:00,33.6,28.4,30.12,North,355,3.0,6.0,81,0.00,,,0.00,0,Wunderground v.1.15,2013-03-07 11:14:00,
2013-03-07 06:19:00,33.6,28.4,30.12,NW,307,4.0,9.0,81,0.00,,,0.00,0,Wunderground v.1.15,2013-03-07 11:19:00,
2013-03-07 06:25:00,33.6,28.4,30.12,NW,307,2.0,4.0,81,0.00,,,0.00,0,Wunderground v.1.15,2013-03-07 11:25:00,
2013-03-07 06:30:00,33.6,28.1,30.12,NW,319,2.0,6.0,80,0.00,,,0.00,0,Wunderground v.1.15,2013-03-07 11:30:00,
2013-03-07 06:36:00,33.6,28.4,30.13,NNW,336,4.0,6.0,81,0.00,,,0.00,0,Wunderground v.1.15,2013-03-07 11:36:00,
2013-03-07 06:41:00,33.5,28.6,30.13,WNW,296,1.0,2.0,82,0.00,,,0.00,0,Wunderground v.1.15,2013-03-07 11:41:00,
2013-03-07 06:47:00,33.3,28.4,30.13,SW,223,1.0,5.0,82,0.00,,,0.00,0,Wunderground v.1.15,2013-03-07 11:47:00,
2013-03-07 06:52:00,33.2,28.6,30.13,WSW,257,2.0,2.0,83,0.00,,,0.00,5,Wunderground v.1.15,2013-03-07 11:52:00,
2013-03-07 06:57:00,33.1,28.5,30.14,West,259,2.0,12.0,83,0.00,,,0.00,7,Wunderground v.1.15,2013-03-07 11:57:00,
2013-03-07 07:02:00,33.2,28.3,30.14,NNE,13,4.0,6.0,82,0.00,,,0.00,9,Wunderground v.1.15,2013-03-07 12:02:00,
2013-03-07 07:08:00,33.3,28.7,30.15,NNW,342,4.0,8.0,83,0.00,,,0.00,11,Wunderground v.1.15,2013-03-07 12:08:00,
2013-03-07 07:14:00,33.3,28.4,30.15,North,360,4.0,9.0,82,0.00,,,0.00,14,Wunderground v.1.15,2013-03-07 12:14:00,
2013-03-07 07:20:00,33.4,28.5,30.15,WNW,300,4.0,4.0,82,0.00,,,0.00,19,Wunderground v.1.15,2013-03-07 12:20:00,
2013-03-07 07:25:00,33.3,28.4,30.15,North,360,3.0,8.0,82,0.00,,,0.00,25,Wunderground v.1.15,2013-03-07 12:25:00,
2013-03-07 07:31:00,33.3,28.7,30.15,West,279,3.0,3.0,83,0.00,,,0.00,32,Wunderground v.1.15,2013-03-07 12:31:00,
2013-03-07 07:36:00,33.2,28.6,30.15,SSW,198,1.0,3.0,83,0.00,,,0.00,37,Wunderground v.1.15,2013-03-07 12:36:00,
2013-03-07 07:42:00,33.1,28.5,30.16,West,281,2.0,8.0,83,0.00,,,0.00,44,Wunderground v.1.15,2013-03-07 12:42:00,
2013-03-07 07:47:00,33.2,28.6,30.16,ESE,121,2.0,8.0,83,0.00,,,0.00,49,Wunderground v.1.15,2013-03-07 12:47:00,
2013-03-07 07:53:00,33.2,28.6,30.16,ESE,119,2.0,3.0,83,0.00,,,0.00,54,Wunderground v.1.15,2013-03-07 12:53:00,
2013-03-07 07:58:00,33.3,28.4,30.16,NNW,332,2.0,5.0,82,0.00,,,0.00,60,Wunderground v.1.15,2013-03-07 12:58:00,
2013-03-07 08:03:00,33.4,28.5,30.16,West,278,2.0,3.0,82,0.00,,,0.00,67,Wunderground v.1.15,2013-03-07 13:03:00,
2013-03-07 08:09:00,33.5,28.6,30.16,West,278,4.0,15.0,82,0.00,,,0.00,88,Wunderground v.1.15,2013-03-07 13:09:00,
2013-03-07 08:14:00,33.6,28.7,30.16,SW,231,6.0,11.0,82,0.00,,,0.00,91,Wunderground v.1.15,2013-03-07 13:14:00,
2013-03-07 08:20:00,33.7,28.8,30.17,WSW,246,8.0,8.0,82,0.00,,,0.00,100,Wunderground v.1.15,2013-03-07 13:20:00,
2013-03-07 08:25:00,33.8,28.6,30.17,West,260,9.0,14.0,81,0.00,,,0.00,98,Wunderground v.1.15,2013-03-07 13:25:00,
2013-03-07 08:31:00,33.9,28.4,30.17,West,279,8.0,8.0,80,0.00,,,0.00,98,Wunderground v.1.15,2013-03-07 13:31:00,
2013-03-07 08:37:00,34.1,28.3,30.17,North,360,5.0,9.0,79,0.00,,,0.00,107,Wunderground v.1.15,2013-03-07 13:37:00,
2013-03-07 08:42:00,34.1,28.3,30.17,NW,307,5.0,7.0,79,0.00,,,0.00,113,Wunderground v.1.15,2013-03-07 13:42:00,
2013-03-07 08:47:00,34.2,28.4,30.17,NW,325,4.0,11.0,79,0.00,,,0.00,121,Wunderground v.1.15,2013-03-07 13:47:00,
2013-03-07 08:53:00,34.3,28.2,30.18,NW,319,6.0,12.0,78,0.00,,,0.00,123,Wunderground v.1.15,2013-03-07 13:53:00,
2013-03-07 08:58:00,34.3,28.5,30.18,NNW,333,9.0,15.0,79,0.00,,,0.00,130,Wunderground v.1.15,2013-03-07 13:58:00,
2013-03-07 09:04:00,34.3,28.2,30.18,WSW,242,8.0,11.0,78,0.00,,,0.00,137,Wunderground v.1.15,2013-03-07 14:04:00,
2013-03-07 09:09:00,34.4,28.6,30.19,East,95,6.0,11.0,79,0.00,,,0.00,144,Wunderground v.1.15,2013-03-07 14:09:00,
2013-03-07 09:15:00,34.4,28.2,30.19,NW,316,6.0,11.0,78,0.00,,,0.00,146,Wunderground v.1.15,2013-03-07 14:15:00,
2013-03-07 09:20:00,34.4,28.6,30.19,WNW,284,7.0,7.0,79,0.00,,,0.00,153,Wunderground v.1.15,2013-03-07 14:20:00,
2013-03-07 09:26:00,34.6,28.4,30.19,North,360,4.0,12.0,78,0.00,,,0.00,162,Wunderground v.1.15,2013-03-07 14:26:00,
2013-03-07 09:32:00,34.5,28.3,30.19,North,360,6.0,9.0,78,0.00,,,0.00,167,Wunderground v.1.15,2013-03-07 14:32:00,
2013-03-07 09:37:00,34.5,28.3,30.19,NNW,333,7.0,11.0,78,0.00,,,0.00,188,Wunderground v.1.15,2013-03-07 14:37:00,
2013-03-07 09:43:00,34.7,28.2,30.19,West,259,5.0,7.0,77,0.00,,,0.00,206,Wunderground v.1.15,2013-03-07 14:43:00,
2013-03-07 09:48:00,34.8,29.0,30.20,WNW,292,6.0,14.0,79,0.00,,,0.00,220,Wunderground v.1.15,2013-03-07 14:48:00,
2013-03-07 09:53:00,34.8,28.3,30.20,North,351,8.0,11.0,77,0.00,,,0.00,232,Wunderground v.1.15,2013-03-07 14:53:00,
2013-03-07 09:59:00,34.7,28.2,30.20,NNW,329,8.0,12.0,77,0.00,,,0.00,251,Wunderground v.1.15,2013-03-07 14:59:00,
2013-03-07 10:05:00,34.7,28.2,30.19,NNW,332,7.0,10.0,77,0.00,,,0.00,269,Wunderground v.1.15,2013-03-07 15:05:00,
2013-03-07 10:11:00,34.7,28.2,30.20,SSW,192,4.0,5.0,77,0.00,,,0.00,281,Wunderground v.1.15,2013-03-07 15:11:00,
2013-03-07 10:16:00,34.8,28.6,30.20,WNW,299,3.0,8.0,78,0.00,,,0.00,301,Wunderground v.1.15,2013-03-07 15:16:00,
2013-03-07 10:22:00,35.0,29.1,30.20,North,360,4.0,10.0,79,0.00,,,0.00,301,Wunderground v.1.15,2013-03-07 15:22:00,
2013-03-07 10:27:00,35.0,29.1,30.20,WNW,292,6.0,14.0,79,0.00,,,0.00,316,Wunderground v.1.15,2013-03-07 15:27:00,
2013-03-07 10:33:00,34.9,29.0,30.20,North,11,8.0,17.0,79,0.00,,,0.00,258,Wunderground v.1.15,2013-03-07 15:33:00,
2013-03-07 10:38:00,34.8,29.0,30.20,WNW,300,8.0,17.0,79,0.00,,,0.00,292,Wunderground v.1.15,2013-03-07 15:38:00,
2013-03-07 10:43:00,34.9,29.4,30.20,WNW,294,6.0,8.0,80,0.00,,,0.00,269,Wunderground v.1.15,2013-03-07 15:43:00,
2013-03-07 10:49:00,34.9,29.4,30.20,NW,321,7.0,15.0,80,0.00,,,0.00,232,Wunderground v.1.15,2013-03-07 15:49:00,
2013-03-07 10:54:00,34.8,29.6,30.20,West,262,7.0,8.0,81,0.00,,,0.00,232,Wunderground v.1.15,2013-03-07 15:54:00,
2013-03-07 11:00:00,34.8,29.3,30.20,WNW,288,4.0,4.0,80,0.00,,,0.00,181,Wunderground v.1.15,2013-03-07 16:00:00,
2013-03-07 11:06:00,34.9,29.7,30.20,West,278,4.0,8.0,81,0.00,,,0.00,192,Wunderground v.1.15,2013-03-07 16:06:00,
2013-03-07 11:11:00,34.9,30.0,30.21,WNW,296,4.0,5.0,82,0.00,,,0.00,167,Wunderground v.1.15,2013-03-07 16:11:00,
2013-03-07 11:17:00,34.7,29.5,30.21,North,360,5.0,9.0,81,0.00,,,0.00,211,Wunderground v.1.15,2013-03-07 16:17:00,
2013-03-07 11:22:00,34.7,29.5,30.21,NNE,24,3.0,4.0,81,0.00,,,0.00,172,Wunderground v.1.15,2013-03-07 16:22:00,
2013-03-07 11:27:00,34.7,29.8,30.21,NW,305,1.0,9.0,82,0.00,,,0.00,139,Wunderground v.1.15,2013-03-07 16:27:00,
2013-03-07 11:33:00,34.6,29.4,30.21,North,360,5.0,8.0,81,0.00,,,0.00,120,Wunderground v.1.15,2013-03-07 16:33:00,
2013-03-07 11:38:00,34.4,29.5,30.21,NW,315,5.0,8.0,82,0.00,,,0.00,141,Wunderground v.1.15,2013-03-07 16:38:00,
2013-03-07 11:44:00,34.3,29.7,30.21,WNW,297,4.0,7.0,83,0.00,,,0.00,202,Wunderground v.1.15,2013-03-07 16:44:00,
2013-03-07 11:49:00,34.4,30.1,30.21,NE,49,3.0,7.0,84,0.00,,,0.00,260,Wunderground v.1.15,2013-03-07 16:49:00,
2013-03-07 11:55:00,34.5,29.3,30.21,NE,56,1.0,3.0,81,0.00,,,0.00,207,Wunderground v.1.15,2013-03-07 16:55:00,
2013-03-07 12:00:00,34.7,29.5,30.21,West,267,2.0,2.0,81,0.00,,,0.00,246,Wunderground v.1.15,2013-03-07 17:00:00,
2013-03-07 12:06:00,34.7,29.5,30.21,West,270,3.0,5.0,81,0.00,,,0.00,258,Wunderground v.1.15,2013-03-07 17:06:00,
2013-03-07 12:12:00,35.0,29.8,30.21,South,191,1.0,3.0,81,0.00,,,0.00,216,Wunderground v.1.15,2013-03-07 17:12:00,
2013-03-07 12:18:00,35.0,29.5,30.21,WNW,300,2.0,7.0,80,0.00,,,0.00,151,Wunderground v.1.15,2013-03-07 17:18:00,
2013-03-07 12:23:00,34.8,29.3,30.21,North,360,4.0,9.0,80,0.00,,,0.00,156,Wunderground v.1.15,2013-03-07 17:23:00,
2013-03-07 12:28:00,34.8,29.6,30.21,WSW,252,4.0,9.0,81,0.00,,,0.00,135,Wunderground v.1.15,2013-03-07 17:28:00,
2013-03-07 12:34:00,34.6,29.4,30.21,NE,38,5.0,6.0,81,0.00,,,0.00,135,Wunderground v.1.15,2013-03-07 17:34:00,
2013-03-07 12:40:00,34.4,29.5,30.21,WSW,254,5.0,5.0,82,0.00,,,0.00,223,Wunderground v.1.15,2013-03-07 17:40:00,
2013-03-07 12:45:00,34.5,29.6,30.21,North,5,2.0,5.0,82,0.00,,,0.00,237,Wunderground v.1.15,2013-03-07 17:45:00,
2013-03-07 12:50:00,34.6,29.4,30.20,North,360,2.0,5.0,81,0.00,,,0.00,246,Wunderground v.1.15,2013-03-07 17:50:00,
2013-03-07 12:56:00,34.8,29.0,30.20,NNW,334,4.0,6.0,79,0.00,,,0.00,264,Wunderground v.1.15,2013-03-07 17:56:00,
2013-03-07 13:02:00,35.1,28.9,30.20,NNW,336,3.0,4.0,78,0.00,,,0.00,209,Wunderground v.1.15,2013-03-07 18:02:00,
2013-03-07 13:07:00,35.3,28.8,30.20,ENE,68,2.0,4.0,77,0.00,,,0.00,239,Wunderground v.1.15,2013-03-07 18:07:00,
2013-03-07 13:13:00,35.5,28.7,30.20,North,360,4.0,9.0,76,0.00,,,0.00,367,Wunderground v.1.15,2013-03-07 18:13:00,
2013-03-07 13:18:00,35.8,29.0,30.19,NNW,338,6.0,9.0,76,0.00,,,0.00,394,Wunderground v.1.15,2013-03-07 18:18:00,
2013-03-07 13:24:00,36.2,28.4,30.20,North,360,8.0,16.0,73,0.00,,,0.00,316,Wunderground v.1.15,2013-03-07 18:24:00,
2013-03-07 13:29:00,36.3,28.5,30.19,NW,315,10.0,16.0,73,0.00,,,0.00,206,Wunderground v.1.15,2013-03-07 18:29:00,
2013-03-07 13:35:00,36.2,28.4,30.19,North,355,7.0,10.0,73,0.00,,,0.00,146,Wunderground v.1.15,2013-03-07 18:35:00,
2013-03-07 13:40:00,35.8,28.3,30.19,WNW,286,7.0,7.0,74,0.00,,,0.00,213,Wunderground v.1.15,2013-03-07 18:40:00,
2013-03-07 13:45:00,35.7,28.6,30.19,WNW,282,8.0,14.0,75,0.00,,,0.00,271,Wunderground v.1.15,2013-03-07 18:45:00,
2013-03-07 13:51:00,35.8,28.0,30.19,NE,49,6.0,6.0,73,0.00,,,0.00,253,Wunderground v.1.15,2013-03-07 18:51:00,
2013-03-07 13:56:00,35.8,28.3,30.19,North,360,3.0,10.0,74,0.00,,,0.00,174,Wunderground v.1.15,2013-03-07 18:56:00,
2013-03-07 14:02:00,35.7,28.6,30.19,North,360,4.0,10.0,75,0.00,,,0.00,315,Wunderground v.1.15,2013-03-07 19:02:00,
2013-03-07 14:08:00,35.9,28.7,30.19,NNE,20,4.0,10.0,75,0.00,,,0.00,374,Wunderground v.1.15,2013-03-07 19:08:00,
2013-03-07 14:13:00,36.0,28.8,30.18,NNW,346,4.0,9.0,75,0.00,,,0.00,376,Wunderground v.1.15,2013-03-07 19:13:00,
2013-03-07 14:19:00,36.3,29.1,30.18,North,360,7.0,12.0,75,0.00,,,0.00,773,Wunderground v.1.15,2013-03-07 19:19:00,
2013-03-07 14:24:00,37.0,29.1,30.18,WNW,290,8.0,14.0,73,0.00,,,0.00,854,Wunderground v.1.15,2013-03-07 19:24:00,
2013-03-07 14:30:00,37.5,29.3,30.18,North,360,7.0,7.0,72,0.00,,,0.00,313,Wunderground v.1.15,2013-03-07 19:30:00,
2013-03-07 14:36:00,37.7,29.5,30.18,North,360,5.0,11.0,72,0.00,,,0.00,443,Wunderground v.1.15,2013-03-07 19:36:00,
2013-03-07 14:42:00,37.7,29.1,30.18,NE,36,5.0,9.0,71,0.00,,,0.00,448,Wunderground v.1.15,2013-03-07 19:42:00,
2013-03-07 14:47:00,37.4,29.2,30.18,WNW,300,6.0,9.0,72,0.00,,,0.00,399,Wunderground v.1.15,2013-03-07 19:47:00,
2013-03-07 14:53:00,37.7,30.2,30.18,SE,126,3.0,5.0,74,0.00,,,0.00,724,Wunderground v.1.15,2013-03-07 19:53:00,
2013-03-07 14:58:00,38.2,29.3,30.18,North,360,3.0,15.0,70,0.00,,,0.00,596,Wunderground v.1.15,2013-03-07 19:58:00,
2013-03-07 15:04:00,38.2,29.6,30.18,NNE,29,5.0,5.0,71,0.00,,,0.00,612,Wunderground v.1.15,2013-03-07 20:04:00,
2013-03-07 15:10:00,38.3,29.7,30.18,North,11,4.0,4.0,71,0.00,,,0.00,211,Wunderground v.1.15,2013-03-07 20:10:00,
2013-03-07 15:15:00,38.0,29.1,30.18,NW,304,3.0,9.0,70,0.00,,,0.00,206,Wunderground v.1.15,2013-03-07 20:15:00,
2013-03-07 15:20:00,37.8,28.9,30.18,North,360,4.0,7.0,70,0.00,,,0.00,148,Wunderground v.1.15,2013-03-07 20:20:00,
2013-03-07 15:26:00,37.5,28.9,30.18,NNW,327,6.0,9.0,71,0.00,,,0.00,366,Wunderground v.1.15,2013-03-07 20:26:00,
2013-03-07 15:32:00,37.6,29.4,30.18,North,360,4.0,7.0,72,0.00,,,0.00,545,Wunderground v.1.15,2013-03-07 20:32:00,
2013-03-07 15:38:00,38.4,29.5,30.18,NNE,19,5.0,12.0,70,0.00,,,0.00,598,Wunderground v.1.15,2013-03-07 20:38:00,
2013-03-07 15:44:00,38.9,29.2,30.18,East,86,6.0,7.0,68,0.00,,,0.00,601,Wunderground v.1.15,2013-03-07 20:44:00,
2013-03-07 15:49:00,38.8,29.5,30.18,NW,324,4.0,7.0,69,0.00,,,0.00,619,Wunderground v.1.15,2013-03-07 20:49:00,
2013-03-07 15:55:00,39.0,29.0,30.18,NNW,329,5.0,9.0,67,0.00,,,0.00,397,Wunderground v.1.15,2013-03-07 20:55:00,
2013-03-07 16:00:00,39.0,29.0,30.18,NW,313,7.0,15.0,67,0.00,,,0.00,399,Wunderground v.1.15,2013-03-07 21:00:00,
2013-03-07 16:06:00,38.3,28.7,30.18,NW,315,10.0,21.0,68,0.00,,,0.00,327,Wunderground v.1.15,2013-03-07 21:06:00,
2013-03-07 16:11:00,37.8,28.5,30.19,NNE,31,11.0,12.0,69,0.00,,,0.00,132,Wunderground v.1.15,2013-03-07 21:11:00,
2013-03-07 16:16:00,37.5,28.6,30.18,SSW,210,5.0,12.0,70,0.00,,,0.00,93,Wunderground v.1.15,2013-03-07 21:16:00,
2013-03-07 16:22:00,37.2,28.3,30.18,NW,315,5.0,14.0,70,0.00,,,0.00,190,Wunderground v.1.15,2013-03-07 21:22:00,
2013-03-07 16:27:00,37.2,28.3,30.18,NNW,329,6.0,14.0,70,0.00,,,0.00,104,Wunderground v.1.15,2013-03-07 21:27:00,
2013-03-07 16:33:00,37.3,28.4,30.18,NNW,342,6.0,7.0,70,0.00,,,0.00,197,Wunderground v.1.15,2013-03-07 21:33:00,
2013-03-07 16:38:00,37.6,29.4,30.18,West,266,4.0,7.0,72,0.00,,,0.00,292,Wunderground v.1.15,2013-03-07 21:38:00,
2013-03-07 16:44:00,38.0,28.4,30.18,WNW,283,2.0,4.0,68,0.00,,,0.00,188,Wunderground v.1.15,2013-03-07 21:44:00,
2013-03-07 16:49:00,38.3,28.7,30.18,WNW,286,3.0,11.0,68,0.00,,,0.00,246,Wunderground v.1.15,2013-03-07 21:49:00,
2013-03-07 16:55:00,38.1,28.5,30.18,WNW,303,6.0,11.0,68,0.00,,,0.00,134,Wunderground v.1.15,2013-03-07 21:55:00,
2013-03-07 17:00:00,37.6,28.7,30.18,NNW,331,7.0,7.0,70,0.00,,,0.00,98,Wunderground v.1.15,2013-03-07 22:00:00,
2013-03-07 17:06:00,37.1,28.6,30.19,North,360,7.0,13.0,71,0.00,,,0.00,88,Wunderground v.1.15,2013-03-07 22:06:00,
2013-03-07 17:12:00,36.8,28.6,30.19,West,266,7.0,8.0,72,0.00,,,0.00,107,Wunderground v.1.15,2013-03-07 22:12:00,
2013-03-07 17:17:00,36.7,28.5,30.19,NNW,327,7.0,8.0,72,0.00,,,0.00,77,Wunderground v.1.15,2013-03-07 22:17:00,
2013-03-07 17:23:00,36.5,28.3,30.20,North,360,5.0,13.0,72,0.00,,,0.00,54,Wunderground v.1.15,2013-03-07 22:23:00,
2013-03-07 17:28:00,36.3,28.5,30.20,WNW,290,6.0,14.0,73,0.00,,,0.00,60,Wunderground v.1.15,2013-03-07 22:28:00,
2013-03-07 17:34:00,36.2,28.4,30.20,North,360,7.0,8.0,73,0.00,,,0.00,40,Wunderground v.1.15,2013-03-07 22:34:00,
2013-03-07 17:39:00,36.0,28.2,30.20,NW,326,6.0,8.0,73,0.00,,,0.00,35,Wunderground v.1.15,2013-03-07 22:39:00,
2013-03-07 17:44:00,35.9,28.1,30.21,West,281,4.0,6.0,73,0.00,,,0.00,26,Wunderground v.1.15,2013-03-07 22:44:00,
2013-03-07 17:50:00,35.7,28.6,30.21,North,360,3.0,9.0,75,0.00,,,0.00,21,Wunderground v.1.15,2013-03-07 22:50:00,
2013-03-07 17:55:00,35.5,28.0,30.21,NNW,338,4.0,9.0,74,0.00,,,0.00,18,Wunderground v.1.15,2013-03-07 22:55:00,
2013-03-07 18:00:00,35.4,28.3,30.21,North,360,3.0,6.0,75,0.00,,,0.00,14,Wunderground v.1.15,2013-03-07 23:00:00,
2013-03-07 18:06:00,35.2,28.1,30.21,North,360,6.0,12.0,75,0.00,,,0.00,11,Wunderground v.1.15,2013-03-07 23:06:00,
2013-03-07 18:11:00,35.1,28.3,30.21,WNW,300,6.0,7.0,76,0.00,,,0.00,7,Wunderground v.1.15,2013-03-07 23:11:00,
2013-03-07 18:16:00,34.9,28.1,30.21,North,355,4.0,7.0,76,0.00,,,0.00,5,Wunderground v.1.15,2013-03-07 23:16:00,
2013-03-07 18:21:00,34.9,28.4,30.22,NW,315,4.0,6.0,77,0.00,,,0.00,0,Wunderground v.1.15,2013-03-07 23:21:00,
2013-03-07 18:27:00,34.7,27.9,30.22,NNW,338,5.0,12.0,76,0.00,,,0.00,0,Wunderground v.1.15,2013-03-07 23:27:00,
2013-03-07 18:32:00,34.6,28.1,30.22,WNW,298,8.0,12.0,77,0.00,,,0.00,0,Wunderground v.1.15,2013-03-07 23:32:00,
2013-03-07 18:37:00,34.6,27.8,30.22,NW,325,8.0,12.0,76,0.00,,,0.00,0,Wunderground v.1.15,2013-03-07 23:37:00,
2013-03-07 18:42:00,34.6,28.1,30.22,WSW,256,6.0,9.0,77,0.00,,,0.00,0,Wunderground v.1.15,2013-03-07 23:42:00,
2013-03-07 18:48:00,34.5,28.3,30.22,West,270,6.0,11.0,78,0.00,,,0.00,0,Wunderground v.1.15,2013-03-07 23:48:00,
2013-03-07 18:53:00,34.3,28.2,30.22,WNW,284,6.0,7.0,78,0.00,,,0.00,0,Wunderground v.1.15,2013-03-07 23:53:00,
2013-03-07 18:59:00,34.3,28.2,30.23,NW,317,7.0,10.0,78,0.00,,,0.00,0,Wunderground v.1.15,2013-03-07 23:59:00,
2013-03-07 19:05:00,34.2,28.1,30.23,West,280,8.0,9.0,78,0.00,,,0.00,0,Wunderground v.1.15,2013-03-08 00:05:00,
2013-03-07 19:10:00,34.2,28.1,30.22,WNW,291,7.0,10.0,78,0.00,,,0.00,0,Wunderground v.1.15,2013-03-08 00:10:00,
2013-03-07 19:16:00,34.0,27.9,30.23,NW,325,9.0,13.0,78,0.00,,,0.00,0,Wunderground v.1.15,2013-03-08 00:16:00,
2013-03-07 19:21:00,34.0,28.2,30.23,NW,320,8.0,8.0,79,0.00,,,0.00,0,Wunderground v.1.15,2013-03-08 00:21:00,
2013-03-07 19:27:00,33.9,28.4,30.23,West,281,7.0,11.0,80,0.00,,,0.00,0,Wunderground v.1.15,2013-03-08 00:27:00,
2013-03-07 19:32:00,33.8,28.3,30.23,WNW,283,6.0,14.0,80,0.00,,,0.00,0,Wunderground v.1.15,2013-03-08 00:32:00,
2013-03-07 19:37:00,33.8,28.3,30.23,WNW,283,7.0,15.0,80,0.00,,,0.00,0,Wunderground v.1.15,2013-03-08 00:37:00,
2013-03-07 19:43:00,33.7,28.2,30.23,West,273,9.0,12.0,80,0.00,,,0.00,0,Wunderground v.1.15,2013-03-08 00:43:00,
2013-03-07 19:48:00,33.7,28.2,30.23,West,273,7.0,12.0,80,0.00,,,0.00,0,Wunderground v.1.15,2013-03-08 00:48:00,
2013-03-07 19:53:00,33.8,28.6,30.23,West,281,5.0,7.0,81,0.00,,,0.00,0,Wunderground v.1.15,2013-03-08 00:53:00,
2013-03-07 19:59:00,33.8,28.6,30.23,NW,308,3.0,7.0,81,0.00,,,0.00,0,Wunderground v.1.15,2013-03-08 00:59:00,
2013-03-07 20:04:00,33.7,28.5,30.23,NW,308,4.0,10.0,81,0.00,,,0.00,0,Wunderground v.1.15,2013-03-08 01:04:00,
2013-03-07 20:09:00,33.7,28.5,30.23,WNW,290,6.0,11.0,81,0.00,,,0.00,0,Wunderground v.1.15,2013-03-08 01:09:00,
2013-03-07 20:15:00,33.7,28.5,30.23,WNW,303,7.0,16.0,81,0.00,,,0.00,0,Wunderground v.1.15,2013-03-08 01:15:00,
2013-03-07 20:20:00,33.8,28.6,30.23,WNW,302,6.0,6.0,81,0.00,,,0.00,0,Wunderground v.1.15,2013-03-08 01:20:00,
2013-03-07 20:26:00,33.8,28.9,30.23,NNW,334,4.0,9.0,82,0.00,,,0.00,0,Wunderground v.1.15,2013-03-08 01:26:00,
2013-03-07 20:31:00,33.9,28.7,30.23,NNE,28,5.0,5.0,81,0.00,,,0.00,0,Wunderground v.1.15,2013-03-08 01:31:00,
2013-03-07 20:36:00,33.9,28.7,30.24,North,349,5.0,6.0,81,0.00,,,0.00,0,Wunderground v.1.15,2013-03-08 01:36:00,
2013-03-07 20:42:00,33.8,28.9,30.24,North,360,3.0,5.0,82,0.00,,,0.00,0,Wunderground v.1.15,2013-03-08 01:42:00,
2013-03-07 20:47:00,33.7,28.8,30.24,NNW,341,4.0,7.0,82,0.00,,,0.00,0,Wunderground v.1.15,2013-03-08 01:47:00,
2013-03-07 20:52:00,33.7,28.5,30.24,North,360,5.0,9.0,81,0.00,,,0.00,0,Wunderground v.1.15,2013-03-08 01:52:00,
2013-03-07 20:58:00,33.6,28.7,30.24,NNW,331,6.0,9.0,82,0.00,,,0.00,0,Wunderground v.1.15,2013-03-08 01:58:00,
2013-03-07 21:04:00,33.6,28.7,30.24,West,279,4.0,5.0,82,0.00,,,0.00,0,Wunderground v.1.15,2013-03-08 02:04:00,
2013-03-07 21:09:00,33.3,28.4,30.23,NNW,341,2.0,7.0,82,0.00,,,0.00,0,Wunderground v.1.15,2013-03-08 02:09:00,
2013-03-07 21:14:00,33.3,28.4,30.23,West,267,2.0,8.0,82,0.00,,,0.00,0,Wunderground v.1.15,2013-03-08 02:14:00,
2013-03-07 21:20:00,33.1,28.2,30.23,WNW,295,2.0,2.0,82,0.00,,,0.00,0,Wunderground v.1.15,2013-03-08 02:20:00,
2013-03-07 21:25:00,33.0,28.4,30.23,NW,311,2.0,6.0,83,0.00,,,0.00,0,Wunderground v.1.15,2013-03-08 02:25:00,
2013-03-07 21:31:00,32.7,28.4,30.23,WNW,292,4.0,9.0,84,0.00,,,0.00,0,Wunderground v.1.15,2013-03-08 02:31:00,
2013-03-07 21:36:00,32.7,28.4,30.23,NW,308,6.0,9.0,84,0.00,,,0.00,0,Wunderground v.1.15,2013-03-08 02:36:00,
2013-03-07 21:42:00,32.9,28.6,30.23,NW,315,4.0,6.0,84,0.00,,,0.00,0,Wunderground v.1.15,2013-03-08 02:42:00,
2013-03-07 21:47:00,33.0,28.4,30.23,North,355,3.0,6.0,83,0.00,,,0.00,0,Wunderground v.1.15,2013-03-08 02:47:00,
2013-03-07 21:53:00,33.1,28.5,30.23,WNW,283,3.0,4.0,83,0.00,,,0.00,0,Wunderground v.1.15,2013-03-08 02:53:00,
2013-03-07 21:58:00,33.2,28.6,30.23,NNW,343,3.0,6.0,83,0.00,,,0.00,0,Wunderground v.1.15,2013-03-08 02:58:00,
2013-03-07 22:04:00,33.2,28.9,30.24,West,275,2.0,4.0,84,0.00,,,0.00,0,Wunderground v.1.15,2013-03-08 03:04:00,
2013-03-07 22:09:00,33.3,29.3,30.23,WNW,293,2.0,8.0,85,0.00,,,0.00,0,Wunderground v.1.15,2013-03-08 03:09:00,
2013-03-07 22:14:00,33.3,29.0,30.24,West,268,5.0,6.0,84,0.00,,,0.00,0,Wunderground v.1.15,2013-03-08 03:14:00,
2013-03-07 22:20:00,33.3,29.3,30.24,North,355,5.0,7.0,85,0.00,,,0.00,0,Wunderground v.1.15,2013-03-08 03:20:00,
2013-03-07 22:25:00,33.3,29.3,30.24,NNW,334,6.0,10.0,85,0.00,,,0.00,0,Wunderground v.1.15,2013-03-08 03:25:00,
2013-03-07 22:30:00,33.3,29.6,30.24,North,349,6.0,9.0,86,0.00,,,0.00,0,Wunderground v.1.15,2013-03-08 03:30:00,
2013-03-07 22:36:00,33.3,29.6,30.24,NW,318,5.0,9.0,86,0.00,,,0.00,0,Wunderground v.1.15,2013-03-08 03:36:00,
2013-03-07 22:41:00,33.2,29.8,30.24,NNW,327,4.0,4.0,87,0.00,,,0.00,0,Wunderground v.1.15,2013-03-08 03:41:00,
2013-03-07 22:46:00,33.2,29.8,30.24,NNE,30,2.0,6.0,87,0.00,,,0.00,0,Wunderground v.1.15,2013-03-08 03:46:00,
2013-03-07 22:52:00,33.2,30.0,30.24,NNW,333,2.0,3.0,88,0.00,,,0.00,0,Wunderground v.1.15,2013-03-08 03:52:00,
2013-03-07 22:57:00,33.2,30.0,30.24,North,355,1.0,3.0,88,0.00,,,0.00,0,Wunderground v.1.15,2013-03-08 03:57:00,
2013-03-07 23:03:00,33.1,29.9,30.24,North,9,1.0,2.0,88,0.00,,,0.00,0,Wunderground v.1.15,2013-03-08 04:03:00,
2013-03-07 23:09:00,32.9,29.7,30.23,ENE,61,3.0,7.0,88,0.00,,,0.00,0,Wunderground v.1.15,2013-03-08 04:09:00,
2013-03-07 23:14:00,32.7,29.5,30.24,ENE,59,3.0,3.0,88,0.00,,,0.00,0,Wunderground v.1.15,2013-03-08 04:14:00,
2013-03-07 23:19:00,32.7,29.8,30.23,ENE,61,1.0,3.0,89,0.00,,,0.00,0,Wunderground v.1.15,2013-03-08 04:19:00,
2013-03-07 23:25:00,32.6,30.0,30.23,ENE,61,0.0,2.0,90,0.00,,,0.00,0,Wunderground v.1.15,2013-03-08 04:25:00,
2013-03-07 23:30:00,32.4,29.8,30.23,ENE,61,0.0,0.0,90,0.00,,,0.00,0,Wunderground v.1.15,2013-03-08 04:30:00,
2013-03-07 23:35:00,32.3,29.7,30.24,NNW,345,0.0,4.0,90,0.00,,,0.00,0,Wunderground v.1.15,2013-03-08 04:35:00,
2013-03-07 23:41:00,31.9,29.0,30.23,NNW,331,2.0,5.0,89,0.00,,,0.00,0,Wunderground v.1.15,2013-03-08 04:41:00,
2013-03-07 23:46:00,32.0,29.1,30.23,NNW,327,3.0,5.0,89,0.00,,,0.00,0,Wunderground v.1.15,2013-03-08 04:46:00,
2013-03-07 23:51:00,32.0,28.6,30.23,NW,317,3.0,5.0,87,0.00,,,0.00,0,Wunderground v.1.15,2013-03-08 04:51:00,
2013-03-07 23:57:00,32.1,28.4,30.23,North,355,5.0,10.0,86,0.00,,,0.00,0,Wunderground v.1.15,2013-03-08 04:57:00,